This demonstration page uses our WeatherBlox Daily Observations layout. Learn more.

Left ArrowRight Arrow

41.55636, -103.73856

Hourly Observations for February 18, 2020

Temp ( °F °C ) Dew Point ( °F °C ) Humidity (%) Winds ( mph kmh ) Pressure ( in mb ) Visibility ( mi km ) Precip ( " mm )
12:17 am 00:17 Mostly Clear 23 -5 23 -5 100 100 NNW 3 6 30.36 1028 10 16 N/A
12:28 am 00:28 Partly Cloudy with Mist and Fog 21 -6.1 21 -6.1 100 100 NNW 3 6 30.38 1029 1 2 N/A
12:31 am 00:31 Mostly Cloudy with Mist and Fog 22 -5.6 20 -6.7 92 92 NNW 3 6 30.37 1029 1 1 N/A
12:53 am 00:53 Clear with Mist and Fog 20 -6.7 20 -6.7 100 100 NNW 5 7 30.25 1024 1 1 N/A
1:06 am 01:06 Clear with Freezing Fog 19 -7 18 -8 93 93 N N/A 30.40 1029 0 0 N/A
1:16 am 01:16 Mostly Cloudy with Freezing Fog 18 -7.8 18 -7.8 100 100 N N/A 30.41 1030 0 0 N/A
1:49 am 01:49 Cloudy with Mist and Fog 21 -6 21 -6 100 100 WNW 5 7 30.39 1029 1 1 N/A
1:53 am 01:53 Cloudy with Mist and Fog 22 -5.6 22 -5.6 100 100 NW 5 7 30.25 1025 1 1 N/A
2:03 am 02:03 Cloudy with Freezing Fog 23 -5 21 -6.1 92 92 NW 3 6 30.37 1029 1 1 N/A
2:13 am 02:13 Cloudy with Mist and Fog 23 -5 22 -5.6 96 96 N N/A 30.36 1028 2 3 N/A
2:21 am 02:21 Cloudy with Mist and Fog 23 -5 22 -5.6 96 96 NW 3 6 30.37 1029 5 8 N/A
2:53 am 02:53 Cloudy 25 -3.9 24 -4.4 96 96 N 3 6 30.25 1024 10 16 N/A
3:53 am 03:53 Cloudy 23 -5 22 -5.6 96 96 WSW 5 7 30.27 1025 8 13 N/A
4:17 am 04:17 Cloudy 23 -5 22 -5.6 96 96 N N/A 30.38 1029 10 16 N/A
4:53 am 04:53 Cloudy 22 -5.6 21 -6.1 96 96 N N/A 30.31 1027 9 14 N/A
5:53 am 05:53 Mostly Cloudy 20 -6.7 18 -7.8 92 92 W 7 11 30.34 1027 10 16 N/A
6:02 am 06:02 Mostly Cloudy 21 -6 19 -7 93 93 W 6 9 30.44 1031 10 16 N/A
6:17 am 06:17 Cloudy with Mist and Fog 22 -5.6 21 -6.1 96 96 WNW 8 13 30.44 1031 2 3 N/A
6:30 am 06:30 Cloudy with Mist and Fog 19 -7 19 -7 100 100 WNW 7 11 30.46 1031 2 3 N/A
6:35 am 06:35 Cloudy with Mist and Fog 20 -6.7 20 -6.7 100 100 WNW 6 9 30.45 1031 1 1 N/A
6:50 am 06:50 Mostly Cloudy with Freezing Fog 19 -7 19 -7 100 100 WNW 6 9 30.47 1032 1 1 N/A
6:53 am 06:53 Mostly Cloudy with Freezing Fog 20 -6.7 19 -7.2 96 96 WNW 6 9 30.36 1028 1 1 N/A
7:08 am 07:08 Mostly Cloudy with Mist and Fog 18 -8 16 -9 93 93 WNW 6 9 30.49 1032 2 3 N/A
7:15 am 07:15 Partly Cloudy 18 -7.8 16 -8.9 92 92 WNW 6 9 30.48 1032 9 14 N/A
7:53 am 07:53 Sunny 19 -7.2 15 -9.4 84 84 WNW 5 7 30.38 1029 10 16 N/A
8:53 am 08:53 Sunny 22 -5.6 17 -8.3 82 82 W 3 6 30.39 1029 10 16 N/A
9:53 am 09:53 Sunny 26 -3.3 15 -9.4 63 63 W 6 9 30.36 1028 10 16 N/A
10:53 am 10:53 Sunny 30 -1.1 18 -7.8 61 61 W 8 13 30.35 1028 10 16 N/A
11:53 am 11:53 Sunny 33 0.6 18 -7.8 54 54 W 10 17 30.35 1028 10 16 N/A
12:53 pm 12:53 Sunny 36 2.2 17 -8.3 46 46 W 9 15 30.32 1027 10 16 N/A
1:53 pm 13:53 Sunny 38 3.3 13 -10.6 36 36 WNW 10 17 30.29 1026 10 16 N/A
2:53 pm 14:53 Sunny 39 3.9 12 -11.1 33 33 W 10 17 30.26 1025 10 16 N/A
3:53 pm 15:53 Sunny 38 3.3 11 -11.7 33 33 W 3 6 30.26 1025 10 16 N/A
4:53 pm 16:53 Sunny 37 2.8 9 -12.8 31 31 W 7 11 30.27 1025 10 16 N/A
5:53 pm 17:53 Clear 28 -2.2 18 -7.8 66 66 NE 13 20 30.32 1027 10 16 N/A
6:53 pm 18:53 Clear 26 -3.3 21 -6.1 81 81 NE 9 15 30.35 1028 10 16 N/A
7:53 pm 19:53 Clear 23 -5 20 -6.7 88 88 S 7 11 30.38 1029 10 16 N/A
8:53 pm 20:53 Clear 22 -5.6 19 -7.2 89 89 E 7 11 30.39 1029 10 16 N/A
9:15 pm 21:15 Partly Cloudy 22 -5.6 20 -6.7 92 92 E 6 9 30.48 1032 10 16 N/A
9:24 pm 21:24 Mostly Cloudy 23 -5 20 -6.7 88 88 E 7 11 30.47 1032 10 16 N/A
9:53 pm 21:53 Cloudy 23 -5 21 -6.1 92 92 ENE 12 19 30.38 1029 10 16 N/A
10:07 pm 22:07 Cloudy 23 -5 22 -5.6 96 96 E 9 15 30.47 1032 10 16 N/A
10:41 pm 22:41 Cloudy 24 -4.4 22 -5.6 91 91 ENE 9 15 30.45 1031 10 16 N/A
10:53 pm 22:53 Cloudy 24 -4.4 22 -5.6 91 91 E 8 13 30.38 1029 10 16 N/A
11:53 pm 23:53 Cloudy 25 -3.9 23 -5 92 92 E 8 13 30.37 1029 10 16 N/A

Powered by AerisWeather